This is the latest recevied weather packets stored in our database for station/object KF7IOR. If no packets are shown the sender has not sent any weather packets the latest 10 day(s).
| Time | Temp. | Humidity | Pressure | Rain* | Wind** | Luminosity | Snow |
|---|---|---|---|---|---|---|---|
| 1777409436 | 14.44° C | 60% | 1023.4 hPa | 0 mm | - | 272 W/m² | - |
| 1777407935 | 13.33° C | 60% | 1023.5 hPa | 0 mm | - | 137 W/m² | - |
| 1777407034 | 13.89° C | 62% | 1023.3 hPa | 0 mm | - | 113 W/m² | - |
| 1777405839 | 13.89° C | 62% | 1023.5 hPa | 0 mm | - | 278 W/m² | - |
| 1777403435 | 13.33° C | 64% | 1023.7 hPa | 0 mm | - | 146 W/m² | - |
| 1777403135 | 13.33° C | 63% | 1023.7 hPa | 0 mm | - | 188 W/m² | - |
| 1777401045 | 12.78° C | 66% | 1023.8 hPa | 0 mm | - | 457 W/m² | - |
| 1777400148 | 12.22° C | 68% | 1023.7 hPa | 0 mm | - | 313 W/m² | - |
| 1777398938 | 11.67° C | 71% | 1023.7 hPa | 0 mm | - | 236 W/m² | - |
| 1777398349 | 11.11° C | 73% | 1023.7 hPa | 0 mm | - | 163 W/m² | - |
| 1777397449 | 10.56° C | 74% | 1023.6 hPa | 0 mm | - | 72 W/m² | - |
| 1777396556 | 10.56° C | 76% | 1023.6 hPa | 0 mm | - | 86 W/m² | - |
| 1777395645 | 10.56° C | 77% | 1023.6 hPa | 0 mm | - | 56 W/m² | - |
| 1777395336 | 10.56° C | 77% | 1023.6 hPa | 0 mm | - | 47 W/m² | - |
| 1777394750 | 10.56° C | 76% | 1023.6 hPa | 0 mm | - | 40 W/m² | - |
| 1777393840 | 11.11° C | 72% | 1023.2 hPa | 0 mm | - | 67 W/m² | - |
| 1777392945 | 11.11° C | 73% | 1023.2 hPa | 0 mm | - | 116 W/m² | - |
| 1777392337 | 11.11° C | 77% | 1023.2 hPa | 0 mm | - | 67 W/m² | - |
| 1777392064 | 11.11° C | 77% | 1023.1 hPa | 0 mm | - | 58 W/m² | - |
| 1777385745 | 10° C | 81% | 1022.4 hPa | 0 mm | - | 33 W/m² | - |
| 1777384534 | 10° C | 82% | 1022.2 hPa | 0 mm | - | 18 W/m² | - |
| 1777383336 | 9.44° C | 84% | 1022 hPa | 0 mm | - | 25 W/m² | - |
| 1777383053 | 9.44° C | 84% | 1021.9 hPa | 0 mm | - | 18 W/m² | - |
| 1777381834 | 9.44° C | 84% | 1021.7 hPa | 0 mm | - | 0 W/m² | - |
| 1777380035 | 8.89° C | 84% | 1021.5 hPa | 0 mm | - | 0 W/m² | - |
* Rain latest hour (hover to see other rain measurements)
** Current wind speed in m/s (hover to see current wind gust speed)